Location: Schommer Observatory
(40.5200°N, 74.4500°W)
Time: 09:36:38
(UTC-04:00)

ISS - Pass Details

Date: 24 May 2018
Orbit: 402 x 407 km, 51.6° (Epoch: 27 May)

Event Time Altitude Azimuth Distance (km) Brightness Sun altitude
Rises 23:03:21 0° 294° (WNW) 2,319 0.8 -23.3°
Reaches altitude 10° 23:06:24 10° 325° (NW) 1,459 0.1 -23.6°
Maximum altitude 23:07:55 13° 353° (N) 1,312 -0.4 -23.7°
Drops below altitude 10° 23:09:26 10° 21° (NNE) 1,459 -0.5 -23.8°
Sets 23:12:29 0° 52° (NE) 2,319 0.2 -24.1°
